User: anonymous   Login
Location: Civry
(47.2902°N, 4.6156°E)
Time: 17:58:56
(UTC+00:00)
Language:

ARGOS Delta rocket - Orbit

View from above orbital plane
View from above orbital plane
View from above satellite
View from above satellite

Ground track
Ground track

The orbit data is extracted from the following two-line orbital elements,

1 25637U 99008D   20184.77899293  .00000007  00000-0  96765-5 0  9993
2 25637  96.4461 198.2085 0141972 344.6245 188.9769 14.46668881126313
Epoch (UTC): 02 July 2020 18:41:44
Eccentricity: 0.0141972
inclination: 96.4461°
perigee height: 635 km
apogee height: 837 km
right ascension of ascending node: 198.2085°
argument of perigee: 344.6245°
revolutions per day: 14.46668881
mean anomaly at epoch: 188.9769°
orbit number at epoch: 12631

The dashed part of the orbit path shows where the satellite is in the earth's shadow,  

DLR